Location: Antioch Church
(34.9543°N, 88.5145°W)
Time: 15:02:36
(UTC+00:00)

Centaur D-1A AC-31 - Pass Details

Date: 11 December 2019
Orbit: 527 x 36414 km, 27.2° (Epoch: 25 January)

Event Time Altitude Azimuth Distance (km) Brightness Sun altitude
Rises 02:07:45 0° 263° (W) 3,337 5.7 -41.2°
Reaches altitude 10° 02:09:19 10° 255° (WSW) 2,780 5.0 -41.5°
Enters shadow 02:14:56 47° 187° (S) 2,467 3.9 -42.6°
Exits shadow 02:49:14 13° 118° (ESE) 13,968 7.5 -49.7°
Drops below altitude 10° 11:11:06 10° 153° (SSE) 25,196 9.7 -20.0°
Sets 12:03:07 0° 137° (SE) 15,898 9.5 -9.9°
